Santa Clara, CA

12:49 AM PDT on July 26, 2016 (GMT -0700)
San Jose International

Weather History for KSJC - August, 2014

Change the Weather History Date:

Sunday, August 24, 2014

  Actual Average Record
Temperature  
Mean Temperature 68 °F 71 °F  
Max Temperature 77 °F 83 °F 102 °F (2010)
Min Temperature 58 °F 59 °F 44 °F (1893)
Degree Days  
Heating Degree Days 0 0  
Month to date heating degree days 0 0  
Since 1 June heating degree days 9 16  
Since 1 July heating degree days 0 1  
Cooling Degree Days 3 6  
Month to date cooling degree days 109 144  
Year to date cooling degree days 462 513  
Since 1 June cooling degree days 371 443  
Growing Degree Days 17 (Base 50)    
Moisture  
Dew Point 55 °F    
Average Humidity 67    
Maximum Humidity 84    
Minimum Humidity 50    
Precipitation  
Precipitation 0.00 in 0.00 in 0.00 in (2016)
Month to date precipitation T 0.00  
Year to date precipitation 4.79 9.89  
Since 1 July precipitation T  
Sea Level Pressure  
Sea Level Pressure 29.87 in    
Wind  
Wind Speed 8 mph (WNW)    
Max Wind Speed 17 mph    
Max Gust Speed 21 mph    
Visibility 10 miles    
Events      
T = Trace of Precipitation, MM = Missing Value Source: NWS Daily Summary

Daily Weather History Graph

Daily Weather History Graph

Search for Another Location

Airport or City:

Trip Planner

Search our weather history database for the weather conditions in past years. The results will help you decide how hot, cold, wet, or windy it might be!

Date:

Astronomy

Aug. 24, 2014 Rise Set
Actual Time 6:31 AM PDT 7:47 PM PDT
Civil Twilight 6:04 AM PDT 8:14 PM PDT
Nautical Twilight 5:31 AM PDT 8:47 PM PDT
Astronomical Twilight 4:58 AM PDT 9:20 PM PDT
Moon 5:46 AM PDT (8/24) 7:09 PM PDT (8/24)
Length of Visible Light 14h 10m
Length of Day
13h 16m
Waning Crescent, 1% of the Moon is Illuminated
Aug 24
Waning Crescent
Aug 25
New
Sep 2
First Quarter
Sep 8
Full
Sep 15
Last Quarter

Hourly Weather History & Observations

Time (PDT) Temp. Dew Point Humidity Pressure Visibility Wind Dir Wind Speed Gust Speed Precip Events Conditions
12:53 AM 61.0 °F 55.9 °F 83% 29.88 in 10.0 mi Calm Calm - N/A   Clear
1:53 AM 61.0 °F 55.0 °F 81% 29.87 in 10.0 mi Calm Calm - N/A   Clear
2:53 AM 60.1 °F 54.0 °F 80% 29.87 in 10.0 mi SE 6.9 mph - N/A   Clear
3:53 AM 59.0 °F 54.0 °F 83% 29.87 in 10.0 mi SSE 4.6 mph - N/A   Clear
4:53 AM 59.0 °F 54.0 °F 83% 29.87 in 10.0 mi SE 5.8 mph - N/A   Partly Cloudy
5:30 AM 59.0 °F 53.6 °F 82% 29.88 in 10.0 mi SE 6.9 mph - N/A   Mostly Cloudy
5:53 AM 59.0 °F 54.0 °F 83% 29.88 in 10.0 mi SSE 5.8 mph - N/A   Mostly Cloudy
6:53 AM 59.0 °F 54.0 °F 83% 29.90 in 10.0 mi SSE 4.6 mph - N/A   Mostly Cloudy
7:53 AM 60.1 °F 54.0 °F 80% 29.91 in 10.0 mi SE 8.1 mph - N/A   Mostly Cloudy
8:53 AM 62.1 °F 55.0 °F 78% 29.91 in 10.0 mi ESE 9.2 mph - N/A   Mostly Cloudy
9:43 AM 64.4 °F 55.4 °F 73% 29.91 in 10.0 mi Calm Calm - N/A   Scattered Clouds
9:53 AM 64.9 °F 55.0 °F 70% 29.91 in 10.0 mi Variable 5.8 mph - N/A   Partly Cloudy
10:53 AM 68.0 °F 54.0 °F 61% 29.90 in 10.0 mi Variable 3.5 mph - N/A   Partly Cloudy
11:53 AM 72.0 °F 54.0 °F 53% 29.88 in 10.0 mi NW 3.5 mph - N/A   Clear
12:53 PM 75.0 °F 55.9 °F 51% 29.86 in 10.0 mi NW 8.1 mph - N/A   Clear
1:53 PM 75.9 °F 57.0 °F 52% 29.85 in 10.0 mi WNW 10.4 mph - N/A   Clear
2:53 PM 75.9 °F 57.0 °F 52% 29.84 in 10.0 mi WNW 15.0 mph - N/A   Clear
3:53 PM 75.9 °F 57.0 °F 52% 29.83 in 10.0 mi WNW 13.8 mph - N/A   Clear
4:53 PM 75.0 °F 57.0 °F 53% 29.81 in 10.0 mi WNW 12.7 mph - N/A   Clear
5:53 PM 75.0 °F 55.9 °F 51% 29.80 in 10.0 mi NW 12.7 mph - N/A   Clear
6:53 PM 71.6 °F 57.2 °F 60% 29.81 in 10.0 mi WNW 12.7 mph - N/A   Partly Cloudy
7:53 PM 66.9 °F 57.0 °F 70% 29.82 in 10.0 mi WNW 13.8 mph - N/A   Partly Cloudy
8:53 PM 64.9 °F 55.9 °F 73% 29.85 in 10.0 mi WNW 11.5 mph - N/A   Clear
9:53 PM 64.0 °F 55.9 °F 75% 29.86 in 10.0 mi NW 8.1 mph - N/A   Clear
10:53 PM 63.0 °F 55.9 °F 78% 29.87 in 10.0 mi NW 3.5 mph - N/A   Partly Cloudy
11:53 PM 63.0 °F 55.9 °F 78% 29.87 in 10.0 mi NNW 3.5 mph - N/A   Partly Cloudy